STARLINK-38059, 69714

Orbit data source: Space-Track

STARLINK-38059, 69714 is a payload satellite owned by SpaceX/Seattle (US) in SSO that was launched on Sun, 28 Jun 2026 UTC via an FALCON 9 launch vehicle from the Air Force Western Test Range (AFWTR). Payload-class satellites include a variety of spacecraft equipped with specific instruments for various scientific and technological missions. These include communications satellites like Starlink; space stations such as the ISS; scientific satellites like the Hubble; Earth observation satellites from companies like Planet Labs, Umbra, and HawkEye 360; GPS; miniature CubeSats for education and research; and military/defense satellites.

Loading next visibility...
Identifier
69714, 2026-147L
Orbit
SSO
Country
Flag of USUS
Related business
Manufacturer
SpaceX/Seattle
Mission
Operational Commercial Communications
Bus & Motor
STARLINK V2MO, Unknown motor
Mass
575 kg wet, ~530 kg dry
Launch date (UTC)
2026-06-28 (2 months ago)
Launch vehicle
FALCON 9
Launch site
Air Force Western Test Range (AFWTR)
Object type
Payload
Rocket body
Debris
Shape & HBR
Box + 1 Pan, 17.7 m
Radar Cross Section
41.120 m², Large (>1 m²)

Expand to show TLE details & history
Last TLE update: 1 day ago

TLE from 1 day ago
0 STARLINK-38059
1 69714U 26147L   26228.07014628  .00009094  00000-0  28357-3 0  9995
2 69714  97.2833 264.9299 0000804  50.4887 309.6427 15.33457013  8805
Epoch: 2026-08-16T01:41Z
TLE epoch observation values (Epoch: 2026-08-16T01:41:00.638Z)
Latitude
-0°
Longitude
-84.79471°
Altitude
468.268 km
Speed
7.632 km/s
True Right ascension
17h 39m 43s
True Declination
0° 00' 00"
Sunlit
Object was in full shadow at epoch
Visualization orbit readout
Latitude
Unknown
Longitude
Unknown
Altitude
Unknown
Speed
Unknown
Apparent Right ascension
Unknown
Apparent Declination
Unknown
Sunlit
N/A
Visualization observer readout
Local Sidereal Time
16:11:40
Azimuth
Unknown
Elevation
Unknown
Doppler factor
Unknown
Orbital elements
Apogee altitude
463 km
Perigee altitude
461.9 km
Semi-major axis
6,840.587 km
Eccentricity
0.00008
Inclination
97.2833°
RAAN
264.9299°
Arg. of periapsis
50.4887°
True anomaly
309.63561°
Mean anomaly
309.6427°
Eccentric anomaly
309.63915°
Mean motion
3.83622 °/min
Orbital period
93.84 mins
BSTAR
0.00028357
Loading maneuver chart data...
Computing Atmospheric mass density...
Loading historical data...
Loading historical data...
Loading historical data...
Loading historical data...
Loading historical data...
Loading historical data...
Loading historical data...

Documentation

Showing up to 5 results
|